Weather History for Naples, FL

Change the Weather History Date:

Monday, May 20, 2013

  Actual Average Record
Temperature  
Mean Temperature 79 °F 79 °F  
Max Temperature 87 °F 88 °F 93 °F (1975)
Min Temperature 70 °F 69 °F 55 °F (1979)
Degree Days  
Heating Degree Days 0 0  
Month to date heating degree days 0 0  
Since 1 July heating degree days 182 260  
Cooling Degree Days 14 14  
Month to date cooling degree days 211 247  
Year to date cooling degree days 948 867  
Growing Degree Days 28 (Base 50)    
Moisture  
Dew Point 70 °F    
Average Humidity 77    
Maximum Humidity 93    
Minimum Humidity 61    
Precipitation  
Precipitation 0.62 in 0.11 in 1.33 in (1969)
Month to date precipitation 2.06 1.65  
Year to date precipitation 8.93 10.34  
Snow  
Snow 0.00 in - - ()
Month to date snowfall 0.0  
Since 1 July snowfall 0.0  
Snow Depth 0.00 in    
Sea Level Pressure  
Sea Level Pressure 30.03 in    
Wind  
Wind Speed 5 mph (East)    
Max Wind Speed 30 mph    
Max Gust Speed 40 mph    
Visibility 8 miles    
Events Rain , Thunderstorm    
T = Trace of Precipitation, MM = Missing Value Source: NWS Daily Summary

Daily Weather History Graph

Daily Weather History Graph

Search for Another Location

Airport:

Trip Planner

Search our weather history database for the weather conditions in past years. The results will help you decide how hot, cold, wet, or windy it might be!

Date:

Astronomy

May. 20, 2013 Rise Set
Actual Time 6:38 AM EDT 8:09 PM EDT
Civil Twilight 6:13 AM EDT 8:34 PM EDT
Nautical Twilight 5:42 AM EDT 9:04 PM EDT
Astronomical Twilight 5:11 AM EDT 9:36 PM EDT
Moon 3:40 PM EDT (5/20) 3:03 AM EDT (5/20)
Length of Visible Light 14h 21m
Length of Day
13h 31m
Waxing Gibbous, 75% of the Moon is Illuminated
May 20
Waxing Gibbous
May 25
Full
May 31
Last Quarter
Jun 8
New
Jun 16
First Quarter

Hourly Weather History & Observations

Time (EDT) Temp. Heat Index Dew Point Humidity Pressure Visibility Wind Dir Wind Speed Gust Speed Precip Events Conditions
12:53 AM 72.0 °F - 69.1 °F 91% 30.07 in 10.0 mi ENE 4.6 mph - N/A   Clear
1:53 AM 72.0 °F - 69.1 °F 91% 30.05 in 10.0 mi ENE 4.6 mph - N/A   Clear
2:53 AM 72.0 °F - 70.0 °F 93% 30.02 in 9.0 mi Calm Calm - N/A   Clear
4:53 AM 72.0 °F - 70.0 °F 93% 30.00 in 9.0 mi NE 4.6 mph - N/A   Clear
5:53 AM 73.0 °F - 70.0 °F 90% 30.01 in 10.0 mi Calm Calm - N/A   Clear
6:53 AM 73.0 °F - 70.0 °F 90% 30.04 in 8.0 mi NNE 3.5 mph - N/A   Clear
7:53 AM 73.0 °F - 70.0 °F 90% 30.04 in 8.0 mi East 4.6 mph - N/A   Clear
8:53 AM 75.9 °F - 71.1 °F 85% 30.05 in 9.0 mi NE 5.8 mph - N/A   Clear
9:53 AM 80.1 °F 84.2 °F 73.0 °F 79% 30.06 in 9.0 mi ENE 5.8 mph - N/A   Clear
10:53 AM 82.9 °F 88.8 °F 73.0 °F 72% 30.05 in 10.0 mi Calm Calm - N/A   Scattered Clouds
11:32 AM 86.0 °F 91.8 °F 71.6 °F 62% 30.05 in 10.0 mi Variable 6.9 mph - N/A   Mostly Cloudy
11:43 AM 86.0 °F 91.8 °F 71.6 °F 62% 30.05 in 10.0 mi Calm Calm - N/A   Scattered Clouds
11:53 AM 84.9 °F 89.4 °F 70.0 °F 61% 30.04 in 10.0 mi Calm Calm - N/A   Mostly Cloudy
12:53 PM 82.9 °F 88.0 °F 72.0 °F 69% 30.03 in 10.0 mi West 10.4 mph - N/A   Overcast
1:53 PM 86.0 °F 93.0 °F 73.0 °F 65% 30.01 in 10.0 mi WSW 9.2 mph - N/A   Clear
2:53 PM 86.0 °F 92.2 °F 72.0 °F 63% 30.00 in 10.0 mi West 9.2 mph - N/A   Clear
3:53 PM 87.1 °F 94.5 °F 73.0 °F 63% 29.98 in 10.0 mi West 9.2 mph - N/A   Clear
4:00 PM 86.0 °F 93.4 °F 73.4 °F 66% 29.98 in 10.0 mi WSW 6.9 mph - N/A Thunderstorm Scattered Clouds
4:16 PM 77.0 °F - 66.2 °F 69% 30.02 in 10.0 mi ESE 19.6 mph 40.3 mph N/A Thunderstorm Unknown
4:29 PM 73.4 °F - 66.2 °F 78% 30.03 in 8.0 mi ESE 19.6 mph 31.1 mph 0.00 in Rain , Thunderstorm Light Thunderstorms and Rain
4:37 PM 71.6 °F - 69.8 °F 94% 30.04 in 1.5 mi ESE 17.3 mph 25.3 mph 0.05 in Rain , Thunderstorm Heavy Rain
4:53 PM 70.0 °F - 70.0 °F 100% 30.05 in 1.5 mi ESE 5.8 mph - 0.34 in Rain , Thunderstorm Heavy Thunderstorms and Rain
5:05 PM 69.8 °F - 69.8 °F 100% 30.04 in 1.2 mi ESE 9.2 mph - 0.16 in Rain , Thunderstorm Heavy Thunderstorms and Rain
5:14 PM 69.8 °F - 69.8 °F 100% 30.02 in 1.8 mi SSE 11.5 mph - 0.24 in Rain Heavy Rain
5:21 PM 71.6 °F - 71.6 °F 100% 30.01 in 2.5 mi South 12.7 mph - 0.28 in Rain Heavy Rain
5:31 PM 71.6 °F - 69.8 °F 94% 30.00 in 7.0 mi South 11.5 mph - 0.28 in Rain Light Rain
5:53 PM 72.0 °F - 70.0 °F 93% 29.99 in 10.0 mi SE 3.5 mph - 0.28 in   Mostly Cloudy
6:53 PM 75.0 °F - 68.0 °F 79% 29.97 in 10.0 mi SE 8.1 mph - N/A   Partly Cloudy
7:53 PM 75.0 °F - 69.1 °F 82% 30.01 in 10.0 mi ENE 4.6 mph - N/A   Clear
8:53 PM 73.9 °F - 70.0 °F 87% 30.05 in 10.0 mi NNE 6.9 mph - N/A   Scattered Clouds
9:29 PM 73.4 °F - 69.8 °F 88% 30.06 in 10.0 mi North 6.9 mph - N/A   Mostly Cloudy
10:21 PM 73.4 °F - 69.8 °F 88% 30.05 in 10.0 mi East 4.6 mph - N/A   Scattered Clouds
10:53 PM 73.0 °F - 70.0 °F 90% 30.04 in 10.0 mi ESE 5.8 mph - N/A   Clear
11:53 PM 73.0 °F - 70.0 °F 90% 30.01 in 10.0 mi East 8.1 mph - N/A   Clear